This demonstration page uses our WeatherBlox Daily Observations layout. Learn more.

Hourly Observations for June 2, 2015

Temp ( °F °C ) Dew Point ( °F °C ) Humidity (%) Winds ( mph kmh ) Pressure ( in mb ) Visibility ( mi km ) Precip ( " mm )
12:15 am 00:15 Clear 62 16.6 57 13.8 84 84 SSE 12 19 29.97 1015 10 16.0934 0 0
12:35 am 00:35 Clear 62 16.5 57 13.9 85 85 SSE 14 22 29.94 1014 10 16.0934 0 0
12:55 am 00:55 Clear 62 16.5 57 14 85 85 SSE 14 22 29.94 1014 10 16.0934 0 0
1:15 am 01:15 Clear 62 16.5 57 14 85 85 SSE 12 19 29.94 1014 10 16.0934 0 0
1:35 am 01:35 Clear 62 16.5 57 14 85 85 SSE 13 20 29.94 1014 10 16.0934 0 0
1:55 am 01:55 Clear 62 16.5 57 14 85 85 S 9 15 29.94 1014 10 16.0934 0 0
2:15 am 02:15 Partly Cloudy 62 16.5 57 14 85 85 S 8 13 29.94 1014 10 16.0934 0 0
2:35 am 02:35 Mostly Cloudy 62 16.7 58 14.2 85 85 WNW 8 13 29.97 1015 10 16.0934 0 0
2:55 am 02:55 Cloudy 63 17.2 58 14.5 84 84 W 6 9 29.97 1015 10 16.0934 0 0
3:15 am 03:15 Cloudy 63 17.3 58 14.5 84 84 W 3 6 29.97 1015 10 16.0934 0 0
3:35 am 03:35 Cloudy 64 17.5 58 14.6 83 83 WSW 9 15 29.97 1015 10 16.0934 0 0
3:55 am 03:55 Cloudy with Thunderstorms 63 17.4 59 15 86 86 SW 7 11 29.97 1015 10 16.0934 0.01 0.254
4:15 am 04:15 Cloudy with Thunderstorms 63 17 59 15.1 89 89 S 14 22 29.94 1014 10 16.0934 0.01 0.254
4:35 am 04:35 Cloudy with Light Rain 62 16.5 59 15.1 92 92 S 12 19 29.94 1014 10 16.0934 0.04 1.016
4:55 am 04:55 Mostly Cloudy with Light Rain 62 16.5 59 15 91 91 S 7 11 29.91 1013 10 16.0934 0.06 1.524
5:15 am 05:15 Mostly Cloudy with Light Rain 61 16.2 59 15 93 93 SE 13 20 29.85 1011 10 16.0934 0 0
5:35 am 05:35 Partly Cloudy 61 16 58 14.7 92 92 SE 8 13 29.88 1012 10 16.0934 0.01 0.254
5:55 am 05:55 Partly Cloudy 60 15.8 58 14.7 93 93 S 15 24 29.91 1013 10 16.0934 0.01 0.254
6:15 am 06:15 Mostly Cloudy with Light Rain 60 15.6 58 14.6 94 94 S 16 26 29.88 1012 10 16.0934 0 0
6:35 am 06:35 Cloudy with Light Rain 61 15.9 58 14.6 92 92 S 18 30 29.85 1011 10 16.0934 0 0
6:55 am 06:55 Mostly Cloudy with Light Drizzle 60 15.8 58 14.5 92 92 SSE 22 35 29.83 1010 10 16.0934 0.01 0.254
7:15 am 07:15 Partly Cloudy 60 15.8 58 14.6 93 93 SSE 20 31 29.83 1010 10 16.0934 0 0
7:35 am 07:35 Sunny 61 16 58 14.6 91 91 S 18 30 29.85 1011 10 16.0934 0 0
7:55 am 07:55 Mostly Cloudy 61 16 58 14.6 91 91 S 17 28 29.85 1011 10 16.0934 0 0
8:15 am 08:15 Cloudy 61 16.2 59 15 93 93 S 16 26 29.85 1011 10 16.0934 0 0
8:35 am 08:35 Cloudy 62 16.5 59 15.1 92 92 S 17 28 29.85 1011 10 16.0934 0 0
8:55 am 08:55 Cloudy 62 16.6 59 15.2 92 92 S 14 22 29.85 1011 10 16.0934 0 0
9:15 am 09:15 Cloudy 63 17 60 15.5 91 91 SSE 17 28 29.85 1011 10 16.0934 0 0
9:35 am 09:35 Cloudy 63 17.2 60 15.7 91 91 S 17 28 29.85 1011 10 16.0934 0 0
9:55 am 09:55 Cloudy 63 17.2 60 15.6 90 90 S 13 20 29.85 1011 10 16.0934 0 0
10:15 am 10:15 Cloudy 64 17.5 60 15.7 89 89 S 13 20 29.88 1012 10 16.0934 0 0
10:35 am 10:35 Cloudy 64 17.7 61 16 90 90 SSE 14 22 29.85 1011 10 16.0934 0 0
10:55 am 10:55 Cloudy 64 18 61 15.9 88 88 S 14 22 29.85 1011 10 16.0934 0 0
11:15 am 11:15 Cloudy 65 18.1 61 16.1 88 88 SSE 13 20 29.85 1011 10 16.0934 0 0
11:35 am 11:35 Cloudy 66 18.7 61 16.3 86 86 SSE 13 20 29.83 1010 10 16.0934 0 0
11:55 am 11:55 Cloudy 67 19.4 62 16.9 86 86 SSE 12 19 29.83 1010 10 16.0934 0 0
12:15 pm 12:15 Cloudy 68 20.2 63 17.3 84 84 SSE 12 19 29.83 1010 10 16.0934 0 0
12:35 pm 12:35 Cloudy 69 20.7 63 17.3 81 81 SSE 12 19 29.83 1010 10 16.0934 0 0
12:55 pm 12:55 Cloudy 71 21.5 64 17.8 80 80 SE 12 19 29.83 1010 10 16.0934 0 0
1:15 pm 13:15 Cloudy 72 22.3 64 17.9 76 76 SSE 9 15 29.83 1010 10 16.0934 0 0
1:35 pm 13:35 Cloudy 74 23.6 64 17.9 70 70 SSE 17 28 29.77 1008 10 16.0934 0 0
1:55 pm 13:55 Cloudy 74 23.4 64 17.8 71 71 SSE 14 22 29.77 1008 10 16.0934 0 0
2:15 pm 14:15 Mostly Cloudy 75 23.9 64 17.9 69 69 SSE 16 26 29.77 1008 10 16.0934 0 0
2:35 pm 14:35 Mostly Cloudy 77 24.8 64 17.6 64 64 SSE 15 24 29.77 1008 10 16.0934 0 0
2:55 pm 14:55 Partly Cloudy 77 25.1 63 17.4 62 62 S 14 22 29.77 1008 10 16.0934 0 0
3:15 pm 15:15 Partly Cloudy 79 26 64 17.8 61 61 SSE 17 28 29.71 1006 10 16.0934 0 0
3:35 pm 15:35 Partly Cloudy 78 25.8 64 17.6 61 61 S 16 26 29.71 1006 10 16.0934 0 0
3:55 pm 15:55 Partly Cloudy 80 26.5 64 17.7 59 59 SSE 13 20 29.71 1006 10 16.0934 0 0
4:15 pm 16:15 Partly Cloudy 81 27 65 18.2 59 59 SSE 20 31 29.68 1005 10 16.0934 0 0
4:35 pm 16:35 Sunny 81 27.3 64 17.7 56 56 S 16 26 29.68 1005 10 16.0934 0 0
4:55 pm 16:55 Sunny 82 27.8 64 17.6 54 54 S 16 26 29.68 1005 10 16.0934 0 0
5:15 pm 17:15 Sunny 82 27.8 64 17.9 55 55 SSE 15 24 29.68 1005 10 16.0934 0 0
5:35 pm 17:35 Partly Cloudy 83 28.2 63 17.2 51 51 SSE 18 30 29.68 1005 10 16.0934 0 0
5:55 pm 17:55 Sunny 83 28.3 62 16.6 49 49 SSE 20 31 29.68 1005 10 16.0934 0 0
6:15 pm 18:15 Sunny 83 28.4 61 16.3 48 48 S 18 30 29.65 1004 10 16.0934 0 0
6:35 pm 18:35 Sunny 82 27.6 61 16.3 50 50 SSE 13 20 29.65 1004 10 16.0934 0 0
6:55 pm 18:55 Sunny 83 28.3 61 16.2 48 48 S 17 28 29.65 1004 10 16.0934 0 0
7:15 pm 19:15 Sunny 83 28.1 61 16.3 49 49 SSE 17 28 29.65 1004 10 16.0934 0 0
7:35 pm 19:35 Sunny 82 27.9 62 16.7 51 51 SSE 16 26 29.65 1004 10 16.0934 0 0
7:55 pm 19:55 Sunny 81 27.4 63 17 53 53 SSE 15 24 29.65 1004 10 16.0934 0 0
8:15 pm 20:15 Sunny 81 27 63 17.2 55 55 SSE 13 20 29.65 1004 10 16.0934 0 0
8:35 pm 20:35 Sunny 79 26.1 64 17.5 59 59 SSE 12 19 29.65 1004 10 16.0934 0 0
8:55 pm 20:55 Sunny 77 25.1 64 17.6 63 63 SE 9 15 29.65 1004 10 16.0934 0 0
9:15 pm 21:15 Clear 76 24.2 64 17.5 66 66 SE 8 13 29.68 1005 10 16.0934 0 0
9:35 pm 21:35 Clear 74 23.6 64 17.6 69 69 SE 10 17 29.68 1005 10 16.0934 0 0
9:55 pm 21:55 Clear 74 23.2 64 17.6 71 71 SE 12 19 29.68 1005 10 16.0934 0 0
10:15 pm 22:15 Clear 73 23 64 17.7 72 72 SE 13 20 29.68 1005 10 16.0934 0 0
10:35 pm 22:35 Clear 73 22.6 64 17.6 73 73 SE 13 20 29.68 1005 10 16.0934 0 0
10:55 pm 22:55 Clear 72 22.3 64 18 77 77 SE 10 17 29.68 1005 10 16.0934 0 0
11:15 pm 23:15 Clear 72 22.2 65 18.2 78 78 SE 12 19 29.68 1005 10 16.0934 0 0
11:35 pm 23:35 Clear 72 22.2 65 18.1 78 78 SE 14 22 29.68 1005 10 16.0934 0 0
11:55 pm 23:55 Clear 72 22 65 18.1 79 79 SE 13 20 29.68 1005 10 16.0934 0 0

Powered by AerisWeather